Wind_Speed
12 11 11 11 11 12 11 11 11 11 12 12 13 13 12 12 10 9 8 4 6 3 4 4 6 6 4 2 3 7 4 7 12 13 13 1 10 8 4 12 14 9 11 20 23
13 13 13 13 12 12 13 12 12 11 11 12 12 12 12 12 11 13 13 13 10 5 4 7 6 7 5 1 1 11 10 7 4 7 8 7 4 2 6 9 15 13 14 18 22
13 14 14 14 14 13 13 13 12 10 10 10 11 11 10 8 11 10 14 13 10 8 7 8 10 9 10 1 2 4 7 3 6 9 7 6 3 4 13 12 16 15 16 18 19
14 15 15 15 15 15 15 14 12 10 9 8 9 9 8 6 6 4 9 10 9 9 9 9 10 14 10 1 3 6 2 2 2 4 3 5 5 2 10 11 16 14 17 17 17
15 15 15 15 16 16 15 15 11 9 8 8 7 7 6 10 19 8 8 8 8 10 11 10 10 11 10 2 2 6 3 4 2 0 5 2 2 6 5 7 12 16 16 16 15
16 16 16 16 16 17 17 15 11 8 7 7 6 6 7 16 4 5 8 4 8 11 12 11 12 8 12 4 8 6 10 4 2 6 0 6 2 2 10 9 13 15 15 14 14
16 17 17 18 17 17 16 16 10 7 6 6 5 5 10 15 6 10 11 8 10 10 13 11 10 11 8 12 2 9 13 9 5 3 4 8 4 6 10 11 13 13 13 13 13
17 17 17 18 18 19 18 14 9 6 5 5 4 4 12 8 15 12 14 13 13 11 10 6 9 12 12 9 13 10 13 12 12 5 5 9 12 12 9 12 13 14 13 13 13
17 17 17 18 18 19 17 12 7 5 5 4 1 4 12 10 13 15 17 16 14 13 11 8 9 15 18 13 16 10 7 8 4 6 7 6 7 9 9 12 12 15 13 13 14
18 18 17 18 18 18 14 8 6 6 6 6 7 8 13 13 11 12 18 18 16 15 13 13 12 14 15 16 7 11 8 10 4 7 8 11 2 10 5 8 11 12 15 10 12
19 19 18 18 17 16 11 7 5 5 13 15 4 8 4 5 8 12 16 19 19 21 17 21 14 18 24 18 6 8 9 4 6 3 9 2 9 6 7 7 9 12 15 19 13
19 19 18 18 17 10 9 4 6 6 11 16 15 13 7 5 9 12 18 22 23 19 21 18 20 22 20 3 3 10 13 11 8 4 7 4 10 6 8 7 10 10 14 12 14
19 19 19 16 13 4 10 7 5 8 9 9 13 16 13 13 15 17 20 27 22 21 22 22 20 21 22 11 11 15 16 3 6 5 11 11 7 5 11 7 9 10 11 12 13
20 19 18 15 6 11 4 2 7 5 6 13 11 10 12 13 18 13 19 28 14 21 22 19 20 23 20 12 17 20 9 1 7 11 2 21 4 20 13 12 8 12 12 13 13
19 19 17 17 13 5 5 5 5 4 6 9 10 7 11 15 11 19 16 26 21 20 16 18 23 19 17 16 19 15 4 8 7 14 13 12 9 13 9 7 15 12 16 13 14
19 17 17 13 11 8 10 7 4 7 4 8 9 11 14 20 11 15 20 24 20 16 18 19 19 13 18 18 20 12 4 12 14 14 12 16 9 12 4 8 6 12 15 14 11
19 17 17 14 4 6 5 6 7 10 5 8 10 11 16 14 17 13 18 20 19 17 18 18 20 16 21 22 17 14 14 13 13 12 11 17 5 3 10 7 1 11 14 14 11
18 17 16 12 8 9 5 9 9 3 4 4 4 9 14 16 17 15 18 19 23 19 13 15 18 19 16 21 15 17 20 15 11 9 5 18 2 6 8 6 4 8 16 15 12
17 9 9 8 7 10 12 11 14 7 3 4 5 10 13 13 13 16 18 19 21 22 18 15 20 20 15 19 19 20 18 23 20 23 16 6 9 8 12 8 7 12 17 17 13
17 9 9 10 8 11 11 17 12 4 4 7 12 11 12 15 15 16 15 17 18 23 22 13 12 17 21 16 22 19 13 12 9 10 6 8 4 4 10 9 8 12 18 19 15
10 7 5 6 11 15 11 17 13 8 7 8 4 4 12 10 17 16 15 9 18 18 19 21 13 13 15 13 17 12 13 11 10 6 9 8 9 2 3 4 12 14 18 21 17
8 7 4 11 12 17 13 18 1 11 12 8 6 11 10 7 9 17 17 13 16 19 22 23 9 14 19 17 23 23 19 19 9 12 10 10 5 11 5 4 10 15 18 21 18
6 9 5 10 8 12 16 12 7 12 12 8 8 10 8 7 7 10 17 11 13 17 19 19 12 14 15 21 22 11 12 12 13 15 8 17 7 3 9 3 5 14 19 18 19
6 5 9 15 19 15 11 12 15 15 15 12 9 9 8 12 11 13 13 15 17 16 23 22 19 19 14 19 18 19 20 15 17 12 7 10 16 13 12 9 8 7 17 19 19
7 4 5 7 13 13 14 4 11 10 15 14 13 15 11 10 17 16 15 13 12 14 18 20 19 22 3 9 16 14 17 14 16 6 6 5 9 9 7 8 8 7 11 16 18
8 5 5 16 10 8 5 11 11 10 4 13 13 12 10 11 13 12 16 14 14 16 17 21 18 21 9 12 10 18 12 16 11 12 19 28 25 11 12 13 8 7 10 12 14
3 8 6 11 15 11 11 11 6 7 4 15 5 6 15 7 5 13 10 20 8 16 19 21 19 17 13 14 13 12 11 13 9 7 7 8 13 4 8 10 4 6 8 13 16
Wind_Direction
12 7 1 353 343 338 330 316 303 294 290 285 285 288 293 295 291 297 265 263 255 233 296 311 299 315 293 314 303 248 277 67 30 62 93 191 88 66 111 105 55 56 61 131 151
8 4 359 353 345 339 331 323 311 300 289 284 280 281 287 294 291 272 245 249 239 220 271 291 319 312 244 354 99 284 60 43 39 5 78 98 36 200 192 132 109 83 100 136 152
5 0 355 351 346 339 333 326 313 304 291 282 277 275 278 294 296 238 227 238 230 218 245 281 289 281 273 147 52 355 66 11 70 39 5 60 142 319 119 59 66 109 131 145 154
359 356 352 349 344 340 335 331 317 304 290 279 273 269 262 252 238 145 221 226 216 211 239 264 265 253 272 159 110 260 168 55 32 20 358 334 11 18 18 44 77 116 142 149 159
354 351 348 344 341 337 334 332 318 303 287 277 269 259 246 238 250 262 206 215 198 195 223 237 262 263 276 356 232 250 358 288 9 7 284 34 334 22 71 99 106 126 145 153 160
348 347 344 341 338 334 331 331 319 299 282 271 261 248 232 250 201 201 203 208 199 206 222 234 246 325 306 271 276 2 276 292 279 65 228 290 109 255 124 138 131 135 152 157 159
345 343 341 338 335 330 325 325 314 295 276 261 249 249 250 236 214 223 213 210 207 215 231 228 252 256 271 252 122 278 267 185 126 52 28 293 232 154 122 152 148 145 158 161 169
340 340 337 335 332 328 322 319 307 287 260 250 248 240 255 237 231 228 215 221 219 223 228 243 239 261 278 292 247 243 241 241 123 313 111 279 92 102 147 165 168 153 159 163 170
335 336 334 331 332 331 327 319 303 282 252 237 282 233 255 229 224 217 210 219 217 219 221 236 235 243 241 245 244 199 229 269 128 127 306 235 105 107 165 173 184 161 164 171 175
331 331 331 329 331 334 336 323 300 265 244 243 232 248 233 225 193 203 208 211 217 206 209 215 221 230 238 234 250 313 206 178 225 69 297 269 236 114 169 201 181 188 155 171 183
327 327 329 329 329 330 343 328 286 225 220 235 304 240 151 195 213 215 201 200 212 207 212 202 216 225 231 230 99 297 301 315 138 62 288 314 297 85 159 196 186 202 173 175 191
321 323 326 331 329 323 337 287 335 328 293 237 240 237 237 233 221 209 193 197 208 210 213 214 225 230 238 290 268 225 251 254 123 160 269 239 267 146 163 202 199 201 181 183 156
320 318 324 334 332 345 312 267 298 314 262 210 220 229 221 215 231 194 195 200 202 218 214 228 209 234 235 180 233 238 249 138 341 340 239 262 258 250 157 178 198 208 206 190 186
320 316 323 333 342 319 321 247 329 271 269 152 196 211 195 205 225 226 197 202 204 220 225 221 242 207 236 234 209 244 246 173 261 260 288 286 194 244 151 169 175 201 202 205 187
317 315 316 321 308 301 280 297 313 282 257 158 137 147 206 202 104 192 200 208 223 213 224 217 221 232 219 216 232 258 205 272 269 258 252 183 272 164 187 175 161 211 186 207 181
312 311 307 325 313 284 289 269 292 233 241 142 149 184 188 210 225 151 195 216 224 225 230 244 211 212 226 225 235 249 236 239 241 252 263 121 250 51 189 65 137 176 183 189 190
309 304 296 292 236 277 281 231 230 247 100 159 188 178 196 187 215 175 193 198 211 209 213 223 243 215 216 230 210 223 228 236 226 218 240 160 196 150 171 64 130 176 180 173 164
309 305 289 276 262 245 228 232 253 344 209 105 239 196 205 185 213 192 192 200 218 218 210 209 213 210 211 237 211 211 235 246 212 267 46 327 252 109 56 94 158 199 170 168 174
314 314 279 282 230 205 222 227 230 244 50 266 177 217 203 205 211 198 207 211 205 223 237 199 227 187 207 217 236 210 224 256 285 195 245 214 140 170 132 127 176 189 166 167 170
322 302 249 213 210 185 229 250 272 279 335 266 262 203 194 197 207 213 199 218 216 207 239 258 213 217 193 215 220 243 280 234 246 274 265 268 225 110 152 160 178 179 177 171 163
322 251 194 230 175 203 227 235 238 191 226 269 279 248 267 194 201 234 222 211 218 195 224 250 258 172 200 196 215 212 240 264 276 259 291 246 41 39 116 168 172 187 190 172 166
276 242 170 160 204 215 230 243 34 251 207 245 277 272 283 228 239 223 223 234 184 228 204 228 242 223 202 189 229 205 215 243 228 222 254 288 81 215 76 129 167 185 190 173 176
267 278 204 190 231 220 227 254 247 231 233 230 241 240 215 268 251 245 239 216 190 217 212 215 241 240 180 210 211 236 240 255 252 251 106 272 151 301 340 120 157 171 175 177 180
271 228 183 214 255 287 236 216 225 214 258 241 250 281 258 245 237 258 224 215 208 212 214 215 234 244 193 191 192 213 239 237 258 259 36 27 358 194 159 143 145 167 173 191 189
238 256 8 186 224 242 270 282 217 220 205 211 228 241 251 277 260 207 254 209 190 193 205 222 229 244 53 333 208 206 256 207 246 91 78 33 242 280 58 95 145 178 186 192 184
294 308 318 275 312 262 198 250 245 223 228 204 239 198 257 280 309 325 203 239 187 206 214 213 233 245 131 220 248 179 201 331 216 266 165 173 220 123 80 90 116 175 191 194 178
290 281 282 272 247 223 242 220 216 266 282 275 253 287 253 163 311 305 298 285 225 190 203 205 224 228 217 215 228 229 236 221 226 221 271 272 92 124 114 87 81 160 187 190 177
Height
1540 1537 1535 1533 1531 1529 1527 1526 1525 1524 1523 1522 1521 1521 1521 1520 1519 1518 1518 1516 1516 1517 1515 1515 1513 1511 1508 1504 1504 1497 1491 1496 1496 1495 1500 1499 1496 1498 1498 1499 1504 1508 1508 1515 1524
1540 1538 1535 1533 1531 1528 1526 1524 1523 1522 1521 1521 1520 1520 1520 1519 1518 1517 1514 1515 1515 1516 1515 1515 1511 1509 1501 1502 1501 1491 1492 1499 1496 1493 1494 1499 1493 1494 1494 1499 1499 1509 1514 1520 1525
1540 1538 1535 1532 1530 1528 1525 1523 1521 1520 1519 1519 1519 1519 1519 1519 1518 1512 1511 1513 1514 1515 1515 1515 1512 1508 1497 1499 1500 1497 1498 1495 1496 1500 1495 1495 1492 1492 1496 1493 1496 1508 1517 1522 1527
1540 1537 1534 1532 1529 1527 1524 1522 1519 1518 1518 1517 1517 1517 1518 1519 1513 1509 1510 1512 1513 1514 1516 1515 1510 1504 1494 1495 1500 1497 1496 1497 1497 1499 1498 1496 1493 1490 1492 1499 1499 1510 1518 1522 1527
1539 1537 1534 1531 1528 1525 1523 1520 1518 1517 1516 1516 1516 1516 1517 1518 1511 1509 1511 1511 1513 1514 1515 1514 1509 1502 1495 1495 1499 1496 1493 1494 1494 1495 1496 1498 1497 1495 1496 1502 1507 1513 1518 1522 1525
1539 1537 1534 1531 1528 1524 1521 1518 1516 1515 1515 1514 1515 1515 1516 1514 1509 1510 1511 1512 1514 1514 1514 1513 1509 1505 1502 1498 1498 1498 1496 1493 1494 1492 1494 1495 1494 1497 1498 1505 1511 1514 1518 1522 1524
1539 1536 1533 1529 1526 1523 1519 1517 1515 1514 1513 1513 1513 1514 1515 1510 1508 1510 1510 1511 1513 1513 1512 1512 1510 1509 1501 1497 1498 1498 1495 1488 1490 1492 1491 1494 1494 1494 1500 1506 1511 1515 1517 1520 1523
1538 1535 1531 1528 1525 1521 1517 1515 1513 1512 1512 1512 1512 1512 1509 1505 1507 1508 1509 1510 1511 1512 1512 1511 1512 1509 1504 1499 1497 1495 1491 1494 1487 1492 1493 1493 1500 1493 1500 1504 1508 1513 1518 1520 1523
1536 1533 1530 1526 1523 1519 1515 1513 1512 1511 1510 1511 1512 1512 1504 1501 1502 1504 1506 1508 1509 1510 1511 1512 1512 1507 1501 1499 1493 1488 1502 1492 1489 1489 1491 1489 1493 1494 1498 1500 1504 1509 1517 1519 1522
1534 1531 1528 1525 1521 1518 1514 1512 1510 1509 1509 1509 1510 1514 1501 1498 1499 1501 1504 1506 1506 1508 1510 1510 1508 1502 1497 1491 1505 1513 1489 1490 1494 1488 1489 1485 1484 1489 1497 1497 1501 1503 1512 1519 1520
1533 1529 1526 1523 1519 1516 1515 1512 1512 1510 1508 1499 1497 1494 1497 1497 1499 1500 1501 1504 1504 1504 1503 1503 1503 1500 1487 1481 1493 1489 1488 1490 1485 1490 1492 1487 1486 1483 1493 1498 1498 1499 1505 1508 1516
1530 1527 1524 1521 1518 1515 1514 1514 1512 1512 1504 1496 1496 1496 1496 1498 1494 1495 1498 1501 1499 1496 1497 1494 1498 1487 1481 1482 1487 1490 1492 1487 1482 1487 1490 1484 1486 1482 1488 1493 1496 1497 1499 1503 1510
1528 1524 1522 1519 1516 1515 1515 1513 1512 1511 1503 1485 1489 1491 1493 1496 1492 1487 1494 1495 1493 1493 1489 1490 1483 1485 1479 1482 1493 1489 1487 1490 1490 1485 1483 1484 1492 1483 1482 1490 1492 1495 1497 1498 1504
1526 1522 1520 1517 1517 1515 1513 1511 1511 1510 1496 1480 1485 1485 1490 1491 1488 1485 1488 1491 1485 1488 1484 1483 1479 1481 1478 1486 1487 1488 1476 1481 1488 1491 1508 1490 1514 1499 1475 1482 1491 1493 1495 1496 1501
1523 1520 1519 1516 1515 1514 1514 1512 1511 1511 1496 1475 1478 1483 1482 1485 1477 1482 1485 1486 1482 1482 1481 1484 1480 1478 1477 1483 1479 1481 1483 1483 1484 1485 1477 1481 1486 1489 1473 1477 1481 1489 1490 1493 1496
1520 1517 1515 1515 1511 1511 1510 1511 1512 1505 1490 1470 1473 1476 1479 1479 1476 1477 1482 1484 1483 1480 1478 1475 1474 1474 1479 1478 1476 1475 1483 1484 1480 1477 1494 1485 1485 1496 1502 1477 1476 1483 1485 1491 1494
1516 1514 1511 1512 1512 1511 1510 1511 1502 1490 1464 1467 1467 1468 1470 1473 1471 1476 1479 1482 1481 1488 1486 1482 1471 1473 1477 1478 1473 1481 1488 1498 1502 1493 1489 1462 1479 1474 1472 1471 1475 1479 1484 1490 1494
1511 1510 1506 1506 1507 1507 1510 1506 1500 1463 1462 1463 1464 1462 1467 1463 1465 1469 1473 1477 1473 1471 1473 1483 1490 1473 1470 1471 1472 1480 1478 1486 1510 1504 1499 1492 1485 1474 1466 1471 1477 1479 1484 1491 1495
1507 1507 1505 1505 1502 1505 1508 1496 1476 1461 1458 1465 1460 1466 1464 1459 1460 1464 1466 1468 1466 1465 1475 1471 1477 1462 1465 1469 1468 1470 1482 1457 1468 1472 1477 1463 1458 1454 1463 1471 1475 1478 1483 1490 1495
1504 1504 1503 1502 1502 1505 1501 1487 1465 1466 1468 1465 1465 1456 1461 1460 1465 1460 1463 1458 1459 1463 1461 1456 1473 1453 1460 1463 1465 1463 1457 1476 1466 1496 1503 1477 1471 1470 1469 1471 1474 1476 1482 1489 1496
1504 1500 1497 1498 1500 1501 1488 1475 1468 1470 1473 1467 1461 1460 1454 1451 1458 1458 1458 1454 1456 1458 1463 1457 1457 1460 1456 1468 1468 1469 1470 1460 1457 1471 1489 1490 1501 1458 1464 1462 1468 1475 1482 1486 1495
1505 1494 1495 1497 1498 1488 1478 1470 1472 1468 1470 1470 1468 1464 1456 1452 1454 1454 1454 1450 1454 1456 1463 1460 1454 1460 1459 1454 1454 1454 1459 1458 1472 1481 1464 1464 1495 1466 1461 1463 1464 1471 1481 1484 1494
1502 1493 1494 1496 1483 1471 1471 1466 1468 1468 1467 1466 1464 1460 1455 1455 1461 1449 1447 1447 1450 1456 1456 1456 1461 1465 1463 1457 1450 1458 1448 1445 1445 1444 1474 1482 1484 1463 1465 1465 1465 1470 1479 1484 1493
1504 1486 1489 1492 1484 1473 1462 1465 1466 1468 1467 1464 1464 1459 1457 1455 1450 1452 1447 1444 1449 1452 1455 1457 1452 1448 1458 1454 1448 1463 1455 1448 1447 1461 1470 1501 1502 1460 1459 1463 1468 1470 1476 1482 1491
1501 1483 1484 1476 1477 1472 1465 1460 1462 1462 1465 1462 1464 1461 1455 1458 1448 1445 1442 1440 1447 1450 1454 1454 1457 1442 1447 1439 1440 1450 1452 1447 1453 1458 1486 1495 1510 1484 1455 1461 1469 1475 1479 1483 1491
1499 1492 1488 1481 1472 1470 1469 1466 1463 1458 1457 1459 1460 1452 1453 1451 1441 1449 1437 1440 1443 1447 1452 1451 1457 1444 1453 1449 1445 1454 1450 1456 1447 1447 1459 1476 1469 1453 1458 1463 1471 1478 1481 1486 1493
1502 1500 1498 1480 1474 1471 1465 1464 1461 1460 1460 1457 1454 1455 1448 1440 1449 1447 1444 1437 1431 1440 1446 1448 1451 1453 1462 1451 1455 1461 1448 1445 1443 1443 1449 1461 1456 1455 1456 1466 1472 1477 1481 1485 1492